[[{"header":{"parameterUnit":"m.s-1","parameterCategory":1,"la1":30.2991,"la2":30.254,"lo1":-89.0895,"lo2":-89.0444,"dy":0.0017,"dx":0.0017,"nx":28,"ny":28,"refTime":"2025-03-09T03:00:00:Z","depth":0,"parameterNumber":2,"parameterNumberName":"U-component_of_WINDS"},"data":[0,0,0,0,0,0,0,0,0,0,0,0,0,0,0,0,0,0,0,0,0,0,0,0,0,0,0,0,0,0,0,0,0,0,0,0,0,0,0,0,0,0,0,0,0,0,0,0,0,0,0,0,0,0,0,0,0,0,-3.7624,-3.7625,0,-3.7712,-3.7713,-3.7714,-3.7666,-3.7664,-3.7662,-3.7659,-3.7748,-3.7752,-3.7757,0,0,0,0,0,0,0,0,0,0,0,0,0,-3.7418,-3.7422,-3.7624,-3.7625,-3.7627,-3.7711,-3.7713,-3.7714,-3.7667,-3.7664,-3.7661,-3.7658,-3.7746,-3.7752,-3.7757,0,0,0,0,0,0,0,0,0,0,0,0,0,-3.7507,-3.7424,-3.7624,-3.7613,-3.7613,-3.7711,-3.7713,-3.7714,-3.7667,-3.7664,-3.766,-3.7657,-3.7745,-3.7751,-3.7758,-3.7871,0,0,-3.7779,-3.7782,0,0,0,0,0,0,0,0,-3.7502,-3.7514,-3.7614,-3.7614,-3.7614,-3.7675,-3.7672,-3.7767,-3.7668,-3.7647,-3.7659,-3.7655,-3.7726,-3.7734,-3.7759,-3.7875,-3.7879,-3.778,-3.7784,-3.7787,-3.7789,0,0,0,0,0,0,0,-3.7496,-3.751,-3.7659,-3.7615,-3.7616,-3.7605,-3.7613,-3.769,-3.7705,-3.7648,-3.7645,-3.7656,-3.7726,-3.7752,-3.776,-3.7881,-3.7779,-3.7785,-3.779,-3.7792,-3.8097,-3.8101,0,0,0,0,0,0,-3.749,-3.7506,-3.7656,-3.7661,-3.7548,-3.7611,-3.7621,-3.7659,-3.7704,-3.7708,-3.7659,-3.7654,-3.7742,-3.7752,-3.7763,-3.79,-3.7787,-3.7793,-3.7797,-3.8093,-3.8098,-3.8102,0,0,0,0,0,0,-3.7486,-3.7504,-3.7652,-3.7583,-3.7601,-3.7618,-3.7661,-3.7662,-3.7689,-3.7713,-3.7715,-3.7683,-3.774,-3.7754,-3.7845,-3.7902,-3.7796,-3.7802,-3.8088,-3.8095,-3.81,-3.8173,0,0,0,0,0,0,-3.748,-3.7503,-3.7546,-3.7584,-3.7605,-3.7733,-3.7665,-3.7667,-3.7701,-3.7694,-3.7736,-3.7739,-3.7738,-3.7835,-3.7852,-3.791,-3.7808,-3.8083,-3.8091,-3.8098,-3.8166,-3.8181,-3.8194,0,0,0,0,0,-3.7473,-3.7562,-3.7548,-3.7566,-3.7658,-3.7736,-3.7748,-3.7745,-3.7705,-3.7749,-3.7765,-3.7738,-3.7894,-3.7845,-3.7864,-3.7924,-3.808,-3.8089,-3.8098,-3.8159,-3.8178,-3.8193,0,0,0,0,0,0,-3.7528,-3.7567,-3.7551,-3.7655,-3.7693,-3.7728,-3.7782,-3.7764,-3.7814,-3.7806,-3.78,-3.781,-3.7905,-3.7924,-3.7869,-3.8037,-3.7981,-3.7994,-3.8021,-3.8039,-3.8053,-3.8046,-3.7813,0,0,0,0,0,-3.7553,-3.7613,-3.7643,-3.7732,-3.7752,-3.7764,-3.7798,-3.7793,-3.7831,-3.7847,-3.7869,-3.7908,-3.7966,-3.8003,-3.8058,-3.8169,-3.8178,-3.822,-3.8234,-3.8245,-3.8256,-3.8318,-3.8337,-3.8132,-3.8132,-3.8131,0,0,-3.7604,-3.7632,-3.767,-3.7744,-3.7772,-3.7835,-3.7778,-3.7846,-3.7892,-3.7857,-3.7945,-3.7964,-3.8006,-3.8109,-3.8155,-3.8127,-3.8315,-3.8257,-3.8266,-3.827,-3.8329,-3.8348,-3.8366,-3.8138,-3.8137,-3.8136,0,0,-3.7728,-3.7756,-3.7833,-3.7864,-3.7908,-3.7916,-3.7935,-3.7974,-3.7985,-3.8074,-3.8049,-3.8105,-3.8204,-3.8236,-3.8265,-3.8406,-3.8383,-3.8424,-3.8496,-3.8556,-3.8573,-3.8587,-3.8637,-3.8655,-3.8435,-3.8435,-3.8435,0,-3.7785,-3.7878,-3.7875,-3.7946,-3.798,-3.7953,-3.8032,-3.8061,-3.8121,-3.8145,-3.8114,-3.8239,-3.8266,-3.8376,-3.8411,-3.8435,-3.8457,-3.8418,-3.8571,-3.8585,-3.8598,-3.8646,-3.8665,-3.844,-3.8439,-3.8439,-3.8438,0,-3.7947,-3.8012,-3.807,-3.8129,-3.817,-3.8244,-3.8253,-3.8295,-3.8287,-3.8299,-3.8391,-3.8423,-3.8484,-3.851,-3.8503,-3.862,-3.8602,-3.8571,-3.8513,-3.8622,-3.8667,-3.8686,-3.8446,-3.8444,-3.8443,-3.8442,0,0,-3.8105,-3.8165,-3.8186,-3.8213,-3.8262,-3.8313,-3.8387,-3.8448,-3.8484,-3.8527,-3.8589,-3.8676,-3.8649,-3.8682,-3.8678,-3.8731,-3.8842,-3.8694,-3.8695,-3.872,-3.8974,-3.8996,-3.9017,-3.8828,-3.8831,-3.8834,-3.897,0,-3.8232,-3.8362,-3.8363,-3.8483,-3.8544,-3.8521,-3.8586,-3.8623,-3.8637,-3.8692,-3.8707,-3.8768,-3.8727,-3.8748,-3.8799,-3.8817,-3.8892,-3.8808,-3.8886,-3.8889,-3.8875,-3.904,-3.9063,-3.919,-3.8988,-3.8991,-3.8993,0,-3.8397,-3.8447,-3.8573,-3.8615,-3.8641,-3.8699,-3.8756,-3.8808,-3.8851,-3.8858,-3.8897,-3.8886,-3.8963,-3.8905,-3.9012,-3.8954,-3.8987,-3.9001,-3.9006,-3.9012,-3.8946,-3.905,-3.923,-3.9249,-3.902,-3.9018,-3.9016,0,-3.8499,-3.8598,-3.8687,-3.8712,-3.8763,-3.8805,-3.8828,-3.8868,-3.8905,-3.8955,-3.8979,-3.9038,-3.9069,-3.9115,-3.9121,-3.9079,-3.9229,-3.9171,-3.9236,-3.9236,-3.9267,-3.9265,-3.9454,-3.929,-3.929,-3.929,-3.9289,0,-3.864,-3.8718,-3.8734,-3.8788,-3.8876,-3.8878,-3.8964,-3.8984,-3.902,-3.9079,-3.9063,-3.9118,-3.9123,-3.9181,-3.9186,-3.9274,-3.9288,-3.9296,-3.9296,-3.9297,-3.9296,-3.9317,-3.9308,-3.9295,-3.9294,-3.9293,-3.9292,0,-3.8768,-3.8782,-3.8877,-3.8919,-3.8932,-3.8995,-3.9031,-3.9083,-3.9097,-3.9172,-3.9189,-3.9211,-3.9278,-3.9289,-3.9368,-3.9371,-3.9476,-3.9468,-3.9462,-3.946,-3.9525,-3.9519,-3.9733,-3.9761,-3.958,-3.9582,-3.9584,0,-3.8856,-3.8916,-3.8966,-3.9004,-3.903,-3.9092,-3.913,-3.9136,-3.9176,-3.9232,-3.9278,-3.9344,-3.9396,-3.9505,-3.9527,-3.9588,-3.958,-3.9652,-3.9589,-3.9589,-3.9581,-3.9577,-3.9583,-3.9663,-3.9665,-3.9667,-3.9668,0,-3.9011,-3.9016,-3.9072,-3.9132,-3.9179,-3.9226,-3.9271,-3.9303,-3.9315,-3.9362,-3.943,-3.9471,-3.9553,-3.9619,-3.968,-3.9704,-3.9688,-3.9688,-3.9706,-3.9706,-3.97,-3.9704,-3.9494,-3.9682,-3.9681,-3.968,-3.9679,-3.9678,-3.9121,-3.9174,-3.9218,-3.9282,-3.9317,-3.936,-3.9412,-3.9433,-3.9491,-3.9558,-3.9558,-3.9634,-3.9678,-3.9758,-3.9787,-3.9847,-3.9824,-3.985,-3.9857,-3.9863,-3.9869,-3.9692,-3.9858,-3.9858,-3.9857,-3.9857,-3.9857,0,-3.9275,-3.9303,-3.9362,-3.9426,-3.9477,-3.946,-3.9509,-3.9553,-3.962,-3.9662,-3.9715,-3.9796,-3.986,-3.989,-3.9954,-3.9996,-3.999,-4.0012,-4.0008,-4.0015,-3.9886,-3.9864,-4.0016,-4.0016,-4.0016,-4.0016,-4.0016,-4.0016,-3.9361,-3.945,-3.946,-3.9567,-3.9594,-3.9669,-3.9699,-3.9739,-3.9773,-3.9864,-3.9917,-3.9937,-3.9975,-4.0042,-4.0101,-4.0108,-4.0132,-4.0157,-4.0161,-4.004,-4.0023,-4.0008,-3.9987,-4.0163,-4.0163,-4.0284,-4.0286,-4.0286]},{"header":{"parameterUnit":"m.s-1","parameterCategory":1,"la1":30.2991,"la2":30.254,"lo1":-89.0895,"lo2":-89.0444,"dy":0.0017,"dx":0.0017,"nx":28,"ny":28,"refTime":"2025-03-09T03:00:00:Z","depth":0,"parameterNumber":3,"parameterNumberName":"V-component_of_WINDS"},"data":[0,0,0,0,0,0,0,0,0,0,0,0,0,0,0,0,0,0,0,0,0,0,0,0,0,0,0,0,0,0,0,0,0,0,0,0,0,0,0,0,0,0,0,0,0,0,0,0,0,0,0,0,0,0,0,0,0,0,1.116,1.116,0,1.1165,1.1165,1.1165,1.1168,1.1168,1.1168,1.1168,1.117,1.117,1.117,0,0,0,0,0,0,0,0,0,0,0,0,0,1.115,1.115,1.116,1.116,1.116,1.1165,1.1165,1.1165,1.1168,1.1168,1.1168,1.1168,1.117,1.117,1.117,0,0,0,0,0,0,0,0,0,0,0,0,0,1.1155,1.115,1.116,1.1162,1.1162,1.1165,1.1165,1.1165,1.1168,1.1168,1.1168,1.1168,1.117,1.117,1.117,1.117,0,0,1.117,1.117,0,0,0,0,0,0,0,0,1.1155,1.1155,1.1162,1.1162,1.1162,1.1166,1.1163,1.1167,1.1168,1.1166,1.1168,1.1168,1.1168,1.1168,1.1169,1.117,1.117,1.117,1.117,1.117,1.117,0,0,0,0,0,0,0,1.1154,1.1155,1.1162,1.1162,1.1162,1.1162,1.1163,1.1163,1.1167,1.1166,1.1166,1.1167,1.1168,1.1169,1.1169,1.117,1.117,1.117,1.117,1.117,1.1174,1.1174,0,0,0,0,0,0,1.1154,1.1155,1.1162,1.1162,1.1158,1.1162,1.1163,1.1165,1.1167,1.1167,1.1167,1.1167,1.1169,1.1169,1.1169,1.1171,1.117,1.117,1.117,1.1174,1.1174,1.1174,0,0,0,0,0,0,1.1154,1.1155,1.1161,1.1158,1.1159,1.1163,1.1164,1.1165,1.1166,1.1167,1.1168,1.1167,1.1169,1.1169,1.1171,1.1171,1.117,1.117,1.1174,1.1174,1.1174,1.1174,0,0,0,0,0,0,1.1153,1.1154,1.1154,1.1159,1.116,1.1163,1.1164,1.1165,1.1166,1.1166,1.1168,1.1168,1.1169,1.117,1.1171,1.1171,1.117,1.1174,1.1174,1.1174,1.1174,1.1174,1.1174,0,0,0,0,0,1.1153,1.1153,1.1154,1.1155,1.116,1.1163,1.1163,1.1166,1.1166,1.1166,1.1168,1.1168,1.1171,1.1171,1.1171,1.1171,1.1173,1.1174,1.1174,1.1174,1.1174,1.1174,0,0,0,0,0,0,1.1146,1.1153,1.1155,1.1156,1.1159,1.1163,1.1163,1.1165,1.1167,1.1167,1.1169,1.1169,1.1171,1.1171,1.117,1.1173,1.1173,1.1173,1.1172,1.1173,1.1173,1.1172,1.117,0,0,0,0,0,1.1146,1.1148,1.1154,1.1154,1.1156,1.116,1.1161,1.1163,1.1165,1.1166,1.1168,1.1169,1.1171,1.1172,1.1173,1.1175,1.1176,1.1175,1.1175,1.1176,1.1176,1.1178,1.1179,1.1174,1.1174,1.1174,0,0,1.1143,1.1147,1.1148,1.1153,1.1156,1.1158,1.116,1.1162,1.1165,1.1166,1.1168,1.117,1.1172,1.1174,1.1175,1.1174,1.1177,1.1176,1.1176,1.1176,1.1179,1.1179,1.1179,1.1175,1.1175,1.1174,0,0,1.1139,1.1142,1.1144,1.1148,1.1153,1.1156,1.1157,1.1161,1.1163,1.1166,1.1168,1.117,1.1172,1.1175,1.1176,1.1178,1.1178,1.1178,1.1179,1.1181,1.1182,1.1182,1.1184,1.1184,1.1178,1.1178,1.1178,0,1.1135,1.114,1.1145,1.1148,1.1151,1.1155,1.1157,1.116,1.1164,1.1166,1.1166,1.1172,1.1173,1.1177,1.1178,1.1178,1.1179,1.1177,1.1182,1.1182,1.1182,1.1184,1.1184,1.1178,1.1178,1.1178,1.1178,0,1.1135,1.1138,1.1139,1.1147,1.1149,1.1152,1.1157,1.116,1.1162,1.1166,1.1169,1.1172,1.1176,1.1177,1.1178,1.1181,1.1181,1.1181,1.1181,1.1183,1.1184,1.1185,1.1178,1.1178,1.1178,1.1178,0,0,1.1124,1.1137,1.1137,1.1142,1.1149,1.1152,1.1156,1.1161,1.1164,1.1167,1.1171,1.1175,1.1176,1.1178,1.118,1.1182,1.1186,1.1183,1.1183,1.1184,1.1191,1.1191,1.1192,1.1187,1.1187,1.1187,1.1191,0,1.1122,1.113,1.1137,1.1142,1.1146,1.1152,1.1156,1.1161,1.1165,1.1169,1.1173,1.1176,1.1177,1.1178,1.1181,1.1185,1.1187,1.1184,1.119,1.119,1.1189,1.1192,1.1191,1.1195,1.1192,1.1192,1.1192,0,1.112,1.1127,1.1134,1.1144,1.1146,1.1149,1.1156,1.1159,1.1166,1.1169,1.1173,1.1176,1.118,1.1181,1.1187,1.1185,1.1188,1.1191,1.1191,1.1191,1.1191,1.1193,1.1196,1.1197,1.1193,1.1193,1.1193,0,1.1114,1.1124,1.113,1.1133,1.1145,1.1147,1.1152,1.1159,1.1163,1.1169,1.1171,1.1177,1.118,1.1184,1.1189,1.1188,1.1196,1.1196,1.1198,1.1198,1.1199,1.1199,1.1203,1.1201,1.1201,1.1201,1.1201,0,1.1111,1.1115,1.1128,1.1131,1.1136,1.1144,1.1149,1.1154,1.1161,1.1165,1.117,1.1175,1.1181,1.1186,1.119,1.1196,1.1197,1.1199,1.12,1.1199,1.1199,1.12,1.12,1.1201,1.1201,1.1201,1.1201,0,1.1103,1.1112,1.1119,1.1131,1.1134,1.1138,1.1148,1.1152,1.1157,1.1163,1.1165,1.1174,1.118,1.1186,1.1194,1.1197,1.1203,1.1204,1.1201,1.1202,1.1205,1.1205,1.121,1.1212,1.1208,1.1208,1.1208,0,1.1101,1.1104,1.1118,1.1123,1.1128,1.1135,1.114,1.1148,1.1153,1.1163,1.1166,1.1174,1.118,1.1191,1.1197,1.1204,1.1205,1.1207,1.1206,1.1205,1.1206,1.1206,1.1207,1.1206,1.1207,1.1207,1.1207,0,1.1095,1.1101,1.1108,1.1119,1.1125,1.1133,1.1141,1.1144,1.1154,1.116,1.1168,1.1173,1.1184,1.1191,1.12,1.1204,1.1207,1.1207,1.1208,1.1207,1.1206,1.1207,1.1202,1.1207,1.1207,1.1207,1.1207,1.1207,1.1091,1.1096,1.1107,1.1116,1.1124,1.1132,1.1137,1.1145,1.1153,1.1163,1.1167,1.1176,1.1185,1.1197,1.1202,1.1208,1.1209,1.121,1.121,1.1211,1.1211,1.1205,1.121,1.121,1.121,1.121,1.121,0,1.1087,1.1095,1.1104,1.1117,1.1124,1.1129,1.1139,1.1145,1.1153,1.1162,1.117,1.118,1.1189,1.1197,1.1206,1.121,1.1212,1.1212,1.1212,1.1213,1.121,1.1208,1.1211,1.1211,1.1211,1.1211,1.1211,1.1211,1.1085,1.1095,1.1102,1.1115,1.1123,1.1134,1.1139,1.1147,1.1155,1.1167,1.1175,1.1181,1.119,1.1201,1.1209,1.1211,1.1214,1.1214,1.1217,1.1213,1.1213,1.1213,1.1212,1.1215,1.1215,1.122,1.122,1.122]}]]